sat.trackr.live / text

‹ back to catalog

COMS 1

NORAD 36744 · 2010-032A

PAYLOAD ACTIVE UNKNOWN

§ Identity

Operator
Country
SKOR
Launch date
2010-06-26
Launch site
FRGUI
Launch vehicle
Mass (kg)
RCS (m²)
15.85

Purposes: comms, earth_obs

External: N2YO · Heavens-Above · Gunter

§ Orbital elements

Epoch: 2026-05-24T18:05:06.158400Z

Period
1,436.10 min
Inclination
4.7506°
Eccentricity
0.0001011
Mean motion
1.00271668 rev/d
Perigee alt
35,782.4 km
Apogee alt
35,790.9 km
Semi-major
42,164.8 km
B*
0.0000e+0
RAAN
75.6577°
Arg perigee
328.9933°
Mean anomaly
237.1042°
Rev number
5,085

§ Raw data

COMS 11 36744U 10032A   26144.75354350 -.00000347  00000+0  00000+0 0  99922 36744   4.7506  75.6577 0001011 328.9933 237.1042  1.00271668 50853

JSON: /api/v1/satellites/36744 · /tle

For live sub-satellite position, see the globe view (requires WebGL).

§ Visibility from observer

Set your observer location to see the next 7 days of passes ≥ 10°. The values pass through the URL so the page stays shareable.

No JS? Fill the form by hand. The geolocation button needs JavaScript.